[[{"header":{"parameterUnit":"m.s-1","parameterCategory":1,"la1":30.2991,"la2":30.254,"lo1":-89.0895,"lo2":-89.0444,"dy":0.0017,"dx":0.0017,"nx":28,"ny":28,"refTime":"2024-06-15T21:00:00:Z","depth":0,"parameterNumber":2,"parameterNumberName":"U-component_of_WINDS"},"data":[0,0,0,0,0,0,0,0,0,0,0,0,0,0,0,0,0,0,0,0,0,0,0,0,0,0,0,0,0,0,0,0,0,0,0,0,0,0,0,0,0,0,0,0,0,0,0,0,0,0,0,0,0,0,0,0,0,0,-2.7607,-2.7607,0,-2.7587,-2.7586,-2.7586,-2.7602,-2.7603,-2.7603,-2.7604,-2.758,-2.7579,-2.7578,0,0,0,0,0,0,0,0,0,0,0,0,0,-2.7659,-2.7658,-2.7607,-2.7607,-2.7607,-2.7587,-2.7586,-2.7586,-2.7602,-2.7603,-2.7604,-2.7604,-2.7581,-2.7579,-2.7577,0,0,0,0,0,0,0,0,0,0,0,0,0,-2.7638,-2.7658,-2.7607,-2.7612,-2.7613,-2.7587,-2.7586,-2.7586,-2.7602,-2.7603,-2.7604,-2.7605,-2.7581,-2.7579,-2.7577,-2.7545,0,0,-2.7571,-2.7571,0,0,0,0,0,0,0,0,-2.7639,-2.7636,-2.7612,-2.7612,-2.7612,-2.7598,-2.7596,-2.7572,-2.7601,-2.7606,-2.7604,-2.7605,-2.7585,-2.7583,-2.7577,-2.7543,-2.7542,-2.7571,-2.757,-2.7569,-2.7569,0,0,0,0,0,0,0,-2.764,-2.7637,-2.7599,-2.7612,-2.7612,-2.7615,-2.7613,-2.7592,-2.759,-2.7605,-2.7607,-2.7604,-2.7585,-2.7578,-2.7576,-2.7542,-2.7571,-2.757,-2.7568,-2.7568,-2.7482,-2.7481,0,0,0,0,0,0,-2.7642,-2.7638,-2.76,-2.7598,-2.7628,-2.7614,-2.7611,-2.7601,-2.759,-2.7589,-2.7603,-2.7605,-2.7581,-2.7578,-2.7575,-2.7536,-2.7569,-2.7567,-2.7566,-2.7483,-2.7482,-2.7481,0,0,0,0,0,0,-2.7643,-2.7638,-2.7601,-2.7618,-2.7614,-2.7612,-2.76,-2.7601,-2.7594,-2.7588,-2.7588,-2.7596,-2.7582,-2.7578,-2.7553,-2.7536,-2.7567,-2.7565,-2.7485,-2.7483,-2.7482,-2.7458,0,0,0,0,0,0,-2.7644,-2.7638,-2.7626,-2.7618,-2.7613,-2.7578,-2.7599,-2.7599,-2.7591,-2.7593,-2.7582,-2.7581,-2.7582,-2.7555,-2.7551,-2.7534,-2.7563,-2.7486,-2.7484,-2.7482,-2.746,-2.7456,-2.7452,0,0,0,0,0,-2.7646,-2.7619,-2.7625,-2.762,-2.7597,-2.7577,-2.7574,-2.7577,-2.7589,-2.7576,-2.7574,-2.7581,-2.7539,-2.7553,-2.7547,-2.753,-2.7487,-2.7485,-2.7482,-2.7462,-2.7457,-2.7452,0,0,0,0,0,0,-2.7623,-2.7618,-2.7624,-2.7595,-2.7586,-2.758,-2.7564,-2.7571,-2.7558,-2.756,-2.7564,-2.7561,-2.7535,-2.753,-2.7545,-2.7498,-2.7515,-2.7511,-2.7502,-2.7497,-2.7492,-2.7493,-2.7562,0,0,0,0,0,-2.7615,-2.76,-2.7596,-2.757,-2.7566,-2.7566,-2.7557,-2.756,-2.7551,-2.7547,-2.7542,-2.7533,-2.7518,-2.7507,-2.7493,-2.7461,-2.7459,-2.7446,-2.7442,-2.7439,-2.7435,-2.7419,-2.7413,-2.7473,-2.7473,-2.7473,0,0,-2.7597,-2.7593,-2.7582,-2.7565,-2.7559,-2.7543,-2.7562,-2.7544,-2.7531,-2.7544,-2.752,-2.7516,-2.7506,-2.7478,-2.7465,-2.7473,-2.7419,-2.7436,-2.7433,-2.7431,-2.7415,-2.741,-2.7405,-2.7471,-2.7471,-2.7472,0,0,-2.7556,-2.7551,-2.753,-2.7524,-2.7515,-2.7516,-2.7511,-2.7504,-2.7502,-2.7479,-2.7488,-2.7474,-2.7447,-2.744,-2.7433,-2.7392,-2.7399,-2.7388,-2.7365,-2.7349,-2.7344,-2.734,-2.7325,-2.732,-2.7384,-2.7384,-2.7384,0,-2.7534,-2.7511,-2.7517,-2.7499,-2.7491,-2.7504,-2.7482,-2.7476,-2.7462,-2.7457,-2.7467,-2.7435,-2.7429,-2.7399,-2.739,-2.7384,-2.7378,-2.7388,-2.7345,-2.7341,-2.7337,-2.7322,-2.7317,-2.7383,-2.7383,-2.7383,-2.7383,0,-2.7485,-2.7468,-2.7452,-2.744,-2.7431,-2.7411,-2.7414,-2.7404,-2.7409,-2.7409,-2.7385,-2.7379,-2.7364,-2.7358,-2.7361,-2.7329,-2.7334,-2.7344,-2.7361,-2.7329,-2.7316,-2.7311,-2.7381,-2.7381,-2.7382,-2.7382,0,0,-2.7425,-2.742,-2.7414,-2.7409,-2.7402,-2.7389,-2.737,-2.7357,-2.7348,-2.734,-2.7323,-2.7302,-2.7313,-2.7304,-2.7308,-2.7294,-2.7263,-2.7307,-2.7306,-2.7298,-2.7226,-2.7217,-2.721,-2.7269,-2.7268,-2.7267,-2.7226,0,-2.7383,-2.7351,-2.7357,-2.7325,-2.731,-2.7324,-2.7308,-2.7301,-2.7302,-2.7289,-2.7289,-2.7273,-2.7288,-2.7284,-2.7271,-2.7269,-2.7248,-2.7273,-2.7252,-2.7251,-2.7252,-2.7204,-2.7193,-2.7155,-2.7221,-2.7221,-2.722,0,-2.7329,-2.732,-2.7287,-2.7284,-2.7278,-2.7263,-2.7252,-2.724,-2.7234,-2.7235,-2.7228,-2.7235,-2.7216,-2.7235,-2.7209,-2.7225,-2.7218,-2.7217,-2.7215,-2.7212,-2.7232,-2.7197,-2.7144,-2.7137,-2.7212,-2.7212,-2.7213,0,-2.7288,-2.7268,-2.7245,-2.7241,-2.7237,-2.7227,-2.7224,-2.722,-2.7212,-2.7203,-2.7198,-2.7186,-2.7179,-2.717,-2.7174,-2.7188,-2.7148,-2.7167,-2.7147,-2.7147,-2.7136,-2.7136,-2.7078,-2.7134,-2.7134,-2.7134,-2.7134,0,-2.7239,-2.7218,-2.7227,-2.7213,-2.719,-2.7199,-2.7176,-2.7175,-2.7171,-2.7157,-2.7169,-2.7156,-2.7163,-2.715,-2.7154,-2.7131,-2.7129,-2.7128,-2.7129,-2.7126,-2.7126,-2.712,-2.7122,-2.7133,-2.7133,-2.7133,-2.7134,0,-2.7188,-2.7193,-2.717,-2.717,-2.7169,-2.7152,-2.7151,-2.7138,-2.7141,-2.7123,-2.712,-2.7123,-2.7109,-2.7113,-2.7097,-2.7099,-2.7071,-2.7076,-2.7073,-2.7074,-2.7053,-2.7055,-2.6988,-2.698,-2.7042,-2.7042,-2.7041,0,-2.7155,-2.714,-2.7138,-2.7131,-2.7128,-2.7115,-2.7108,-2.7117,-2.7109,-2.7102,-2.709,-2.7077,-2.7067,-2.7044,-2.7045,-2.7033,-2.7037,-2.7015,-2.7035,-2.7033,-2.7035,-2.7035,-2.7034,-2.701,-2.7009,-2.7008,-2.7008,0,-2.7097,-2.7101,-2.709,-2.7082,-2.7073,-2.7066,-2.706,-2.7053,-2.7062,-2.7052,-2.7039,-2.7031,-2.7017,-2.7004,-2.6994,-2.6991,-2.7,-2.7002,-2.6997,-2.6992,-2.6991,-2.699,-2.706,-2.7003,-2.7003,-2.7004,-2.7004,-2.7004,-2.7053,-2.704,-2.7038,-2.7026,-2.7023,-2.7018,-2.7006,-2.7008,-2.6998,-2.6987,-2.6993,-2.6977,-2.6973,-2.6961,-2.6958,-2.6946,-2.6954,-2.6946,-2.6944,-2.6941,-2.6938,-2.6995,-2.6944,-2.6944,-2.6944,-2.6944,-2.6944,0,-2.6994,-2.6994,-2.6983,-2.6976,-2.6967,-2.6979,-2.6974,-2.6966,-2.6952,-2.6948,-2.6939,-2.6924,-2.6912,-2.6913,-2.6903,-2.6893,-2.6897,-2.6889,-2.6889,-2.6888,-2.6932,-2.6937,-2.6886,-2.6886,-2.6886,-2.6886,-2.6886,-2.6886,-2.6962,-2.6941,-2.6945,-2.6923,-2.6924,-2.6909,-2.6905,-2.6901,-2.6898,-2.6881,-2.6872,-2.6873,-2.6872,-2.6861,-2.6851,-2.6852,-2.6847,-2.6837,-2.6839,-2.6879,-2.6885,-2.6891,-2.6895,-2.6837,-2.6837,-2.6797,-2.6796,-2.6796]},{"header":{"parameterUnit":"m.s-1","parameterCategory":1,"la1":30.2991,"la2":30.254,"lo1":-89.0895,"lo2":-89.0444,"dy":0.0017,"dx":0.0017,"nx":28,"ny":28,"refTime":"2024-06-15T21:00:00:Z","depth":0,"parameterNumber":3,"parameterNumberName":"V-component_of_WINDS"},"data":[0,0,0,0,0,0,0,0,0,0,0,0,0,0,0,0,0,0,0,0,0,0,0,0,0,0,0,0,0,0,0,0,0,0,0,0,0,0,0,0,0,0,0,0,0,0,0,0,0,0,0,0,0,0,0,0,0,0,3.0914,3.0915,0,3.0993,3.0994,3.0995,3.0967,3.0965,3.0963,3.0961,3.1053,3.1057,3.1062,0,0,0,0,0,0,0,0,0,0,0,0,0,3.075,3.0753,3.0914,3.0915,3.0916,3.0993,3.0994,3.0995,3.0967,3.0965,3.0962,3.096,3.1052,3.1057,3.1062,0,0,0,0,0,0,0,0,0,0,0,0,0,3.0824,3.0754,3.0914,3.0911,3.0911,3.0993,3.0994,3.0995,3.0967,3.0965,3.0962,3.0959,3.105,3.1057,3.1063,3.1155,0,0,3.1082,3.1084,0,0,0,0,0,0,0,0,3.082,3.0831,3.0911,3.0911,3.0912,3.0967,3.097,3.1049,3.0968,3.0947,3.0961,3.0958,3.1028,3.1036,3.1057,3.1159,3.1163,3.1082,3.1086,3.1089,3.109,0,0,0,0,0,0,0,3.0815,3.0827,3.0946,3.0912,3.0913,3.0909,3.0917,3.0985,3.1002,3.0948,3.0946,3.0955,3.1028,3.1051,3.1059,3.1165,3.1082,3.1087,3.1091,3.1094,3.1346,3.1348,0,0,0,0,0,0,3.0808,3.0823,3.0943,3.0948,3.0858,3.0914,3.0923,3.0952,3.1001,3.1005,3.0958,3.0954,3.1041,3.1051,3.1062,3.1171,3.1089,3.1094,3.1098,3.1343,3.1346,3.1349,0,0,0,0,0,0,3.0805,3.0819,3.094,3.0885,3.09,3.092,3.0953,3.0955,3.0978,3.1008,3.1012,3.0977,3.104,3.1053,3.1131,3.1174,3.1097,3.1103,3.1339,3.1344,3.1348,3.1392,0,0,0,0,0,0,3.08,3.0818,3.0851,3.0886,3.0903,3.1005,3.0956,3.0959,3.0987,3.0983,3.1027,3.1032,3.1039,3.1122,3.1137,3.1181,3.1108,3.1335,3.1341,3.1346,3.1387,3.1397,3.1406,0,0,0,0,0,3.0794,3.0863,3.0853,3.0867,3.0944,3.1007,3.1018,3.102,3.0991,3.1026,3.1044,3.1031,3.1167,3.113,3.1147,3.1194,3.1333,3.134,3.1346,3.1382,3.1395,3.1406,0,0,0,0,0,0,3.0837,3.0868,3.0856,3.0938,3.097,3.1002,3.1046,3.1034,3.1078,3.1073,3.1078,3.1089,3.1168,3.1189,3.1147,3.1285,3.1246,3.1256,3.1268,3.128,3.129,3.1283,3.1113,0,0,0,0,0,3.0855,3.0901,3.0927,3.0996,3.1012,3.1026,3.1054,3.1053,3.1088,3.1103,3.1127,3.1165,3.1216,3.1249,3.1298,3.139,3.1399,3.1431,3.1441,3.1448,3.1457,3.1506,3.152,3.1371,3.1371,3.1371,0,0,3.0895,3.0917,3.0947,3.1005,3.103,3.1079,3.1038,3.1093,3.113,3.1112,3.1185,3.1205,3.1247,3.1331,3.137,3.1352,3.15,3.1457,3.1463,3.1468,3.1514,3.1528,3.1541,3.1376,3.1375,3.1374,0,0,3.0992,3.1013,3.1072,3.1097,3.1132,3.1141,3.1155,3.1189,3.12,3.1273,3.126,3.1307,3.1395,3.1424,3.1451,3.1558,3.1546,3.1574,3.1625,3.1673,3.1684,3.1695,3.1732,3.1745,3.1583,3.1583,3.1583,0,3.1038,3.1108,3.1105,3.1159,3.1186,3.1168,3.1229,3.1254,3.1306,3.1326,3.1304,3.1412,3.144,3.153,3.1555,3.1578,3.1596,3.1568,3.1682,3.1693,3.1702,3.1738,3.1751,3.1586,3.1586,3.1585,3.1585,0,3.1161,3.1211,3.1255,3.1299,3.1332,3.139,3.1398,3.1432,3.1428,3.144,3.1515,3.1546,3.16,3.1622,3.1621,3.1712,3.1699,3.168,3.1641,3.1719,3.1752,3.1766,3.159,3.1589,3.1588,3.1587,0,0,3.1288,3.1328,3.1344,3.1364,3.1401,3.1441,3.1499,3.1547,3.1575,3.1613,3.1662,3.1736,3.1717,3.1747,3.175,3.1792,3.1872,3.1767,3.1768,3.1784,3.1973,3.1986,3.2002,3.1865,3.1868,3.187,3.1969,0,3.1386,3.1481,3.148,3.1571,3.1616,3.1599,3.165,3.168,3.1693,3.1736,3.1752,3.1803,3.1776,3.1793,3.1834,3.1853,3.191,3.1847,3.1912,3.1915,3.19,3.2019,3.2034,3.2126,3.1982,3.1984,3.1986,0,3.1513,3.1548,3.1641,3.167,3.1689,3.1734,3.1778,3.1819,3.1853,3.186,3.1892,3.1888,3.1949,3.1909,3.1994,3.195,3.1978,3.1992,3.1995,3.2001,3.1954,3.2027,3.2156,3.2169,3.2007,3.2005,3.2004,0,3.1592,3.1665,3.1729,3.1747,3.1783,3.1814,3.1832,3.1863,3.1892,3.1932,3.1951,3.1999,3.2025,3.2064,3.2073,3.2043,3.2158,3.2119,3.2166,3.2166,3.2191,3.2189,3.2324,3.2211,3.2211,3.221,3.221,0,3.1701,3.1759,3.1764,3.1804,3.1869,3.1869,3.1934,3.1949,3.1977,3.2022,3.2012,3.2055,3.2065,3.2111,3.212,3.2188,3.2201,3.2209,3.221,3.2209,3.2207,3.2226,3.2219,3.2214,3.2213,3.2213,3.2212,0,3.1801,3.1807,3.1876,3.1903,3.1911,3.1958,3.1983,3.2022,3.2033,3.2089,3.2103,3.2122,3.2174,3.2187,3.2252,3.2258,3.2338,3.2335,3.2325,3.2324,3.2371,3.2365,3.2522,3.2542,3.2416,3.2418,3.2419,0,3.1868,3.1911,3.1942,3.1968,3.1986,3.203,3.2058,3.2061,3.2091,3.2133,3.2167,3.2218,3.2258,3.2344,3.2366,3.2415,3.2412,3.2463,3.2419,3.2416,3.2411,3.2407,3.2411,3.2471,3.2472,3.2473,3.2474,0,3.1988,3.1988,3.2026,3.2065,3.2098,3.213,3.2161,3.2185,3.2193,3.2228,3.2278,3.231,3.2373,3.2424,3.2473,3.2495,3.2486,3.2488,3.2501,3.2499,3.2491,3.2494,3.2346,3.2484,3.2483,3.2482,3.2482,3.2481,3.2072,3.2109,3.2135,3.2178,3.2201,3.2229,3.2266,3.2281,3.2322,3.2371,3.2371,3.2427,3.2462,3.2526,3.255,3.2596,3.258,3.26,3.2605,3.261,3.2612,3.2484,3.2605,3.2605,3.2605,3.2605,3.2604,0,3.2189,3.2204,3.2244,3.2285,3.2319,3.2304,3.2338,3.2369,3.2416,3.2447,3.2486,3.2545,3.2594,3.2618,3.2667,3.2699,3.2697,3.2712,3.2709,3.2714,3.2624,3.2607,3.2713,3.2713,3.2713,3.2713,3.2713,3.2713,3.2254,3.2314,3.2317,3.239,3.2406,3.2457,3.2477,3.2505,3.2528,3.2593,3.2632,3.2646,3.2675,3.2726,3.2771,3.2777,3.2795,3.2812,3.2816,3.2732,3.2721,3.271,3.2693,3.2816,3.2817,3.2902,3.2903,3.2904]}]]